DW9435 Weather Reports


Display with metric or nautical units.
time (UTC)temp
F
wind
direction
speed
MPH
gust
MPH
rain 1hr
in
rain 24hr
in
rain mn
in
humidity
%
barometer
mb
20260504050019 62 153 1.0 3.0 0.00 0.00 0.00 25 1002.4
20260504044515 62 146 2.0 3.0 0.00 0.00 0.00 26 1002.5
20260504043014 62 146 2.0 3.0 0.00 0.00 0.00 26 1002.5
20260504041513 63 156 2.0 3.0 0.00 0.00 0.00 25 1002.7
20260504040008 64 174 3.0 4.0 0.00 0.00 0.00 24 1002.6
20260504034509 64 180 1.0 2.0 0.00 0.00 0.00 23 1002.5
20260504033008 65 108 1.0 3.0 0.00 0.00 0.00 22 1002.5
20260504031509 65 143 0.0 3.0 0.00 0.00 0.00 23 1002.5
20260504030006 65 135 2.0 4.0 0.00 0.00 0.00 23 1002.5
20260504024507 65 159 1.0 4.0 0.00 0.00 0.00 23 1002.4
20260504023006 67 79 0.0 1.0 0.00 0.00 0.00 18 1002.2
20260504021504 67 101 1.0 2.0 0.00 0.00 0.00 18 1002.1
20260504020004 68 67 1.0 3.0 0.00 0.00 0.00 19 1002.1
20260504014502 68 90 0.0 2.0 0.00 0.00 0.00 19 1002.1
20260504013002 69 72 1.0 5.0 0.00 0.00 0.00 17 1002.3
20260504011600 69 49 3.0 7.0 0.00 0.00 0.00 17 1002.4
20260504010058 70 348 2.0 10.0 0.00 0.00 0.00 16 1002.5
20260504004557 70 323 3.0 12.0 0.00 0.00 0.00 16 1002.7
20260504003056 71 305 5.0 9.0 0.00 0.00 0.00 15 1002.8
20260504001556 72 218 3.0 7.0 0.00 0.00 0.00 14 1002.9
20260504000054 72 322 1.0 5.0 0.00 0.00 0.00 14 1002.8
20260503234622 72 49 1.0 3.0 0.00 0.00 0.00 13 1002.9
20260503233053 72 34 1.0 4.0 0.00 0.00 0.00 13 1003.0
20260503231550 72 51 1.0 4.0 0.00 0.00 0.00 13 1003.2
20260503230049 72 214 3.0 8.0 0.00 0.00 0.00 13 1003.3
20260503224547 72 281 1.0 8.0 0.00 0.00 0.00 14 1003.5
20260503223046 72 215 5.0 9.0 0.00 0.00 0.00 13 1003.7
20260503221554 72 105 2.0 8.0 0.00 0.00 0.00 14 1004.0
20260503220040 72 198 6.0 12.0 0.00 0.00 0.00 13 1004.4
20260503214538 72 79 5.0 10.0 0.00 0.00 0.00 13 1004.7
20260503213037 73 95 3.0 10.0 0.00 0.00 0.00 13 1005.0
20260503211533 73 172 3.0 12.0 0.00 0.00 0.00 12 1005.3
20260503210030 72 266 2.0 9.0 0.00 0.00 0.00 13 1005.6
20260503204529 73 354 2.0 11.0 0.00 0.00 0.00 15 1005.9
20260503203027 74 45 2.0 11.0 0.00 0.00 0.00 14 1006.0
20260503201523 74 134 4.0 10.0 0.00 0.00 0.00 15 1006.2
20260503200021 72 27 2.0 6.0 0.00 0.00 0.00 16 1006.6
20260503194521 72 256 2.0 13.0 0.00 0.00 0.00 17 1006.9
20260503193016 71 249 5.0 14.0 0.00 0.00 0.00 17 1007.0
20260503191513 70 326 3.0 10.0 0.00 0.00 0.00 17 1007.3
20260503190009 69 322 4.0 11.0 0.00 0.00 0.00 20 1007.7
20260503184513 68 232 2.0 10.0 0.00 0.00 0.00 20 1007.9
20260503183006 68 321 7.0 13.0 0.00 0.00 0.00 19 1008.1
20260503181504 68 277 2.0 9.0 0.00 0.00 0.00 19 1008.4
20260503180004 68 259 3.0 15.0 0.00 0.00 0.00 20 1008.4
20260503174502 68 179 7.0 12.0 0.00 0.00 0.00 19 1008.5
20260503173110 67 316 4.0 11.0 0.00 0.00 0.00 20 1008.7
20260503171559 67 262 8.0 18.0 0.00 0.00 0.00 20 1008.9
20260503081556 59 138 2.0 4.0 0.00 0.00 0.00 24 1010.1
20260503071606 60 94 3.0 5.0 0.00 0.00 0.00 25 1010.3